Location: *
(17.3280°S, 114.7300°W)
Time: 07:40:38
(UTC+00:00)

Cosmos 1603 - Pass Details

Date: 05 August 2020
Orbit: 830 x 860 km, 71.0° (Epoch: 21 September)

Event Time Altitude Azimuth Distance (km) Brightness Sun altitude
Rises 13:37:53 0° 331° (NNW) 3,391 6.7 -6.5°
Reaches altitude 10° 13:40:24 10° 326° (NW) 2,457 5.9 -6.0°
Maximum altitude 13:45:49 49° 252° (WSW) 1,081 3.9 -4.7°
Drops below altitude 10° 13:51:16 10° 177° (S) 2,460 6.0 -3.5°
Sets 13:53:48 0° 172° (S) 3,396 6.8 -2.9°
